Погода в Майкао

Колумбия     11°22′47″N   72°14′39″W
темп.,
°C
ветер,
м/с
пор.,
м/с
влажн.,
%
обл.,
%
осадки,
мм/ч
давл.,
гПа
погр.,
м
17 октября, вс
вс1701:00+26зюз238790 3.4 1011110
04:00+25з3488100 0.1 101089
07:00+26зюз238398 2.3 1012169
10:00+30вюв1262100 3.3 1013909
13:00+32в2255100 4.1 10091520
16:00+29сз566891 1.1 1009390
19:00+27з46829 2.3 1011151
22:00+26з458749 0.0 1012122
18 октября, пн
пн1801:00+25зюз348952 0.1 101198
04:00+25зюз339098 1.9 101067
07:00+26юз118130 2.3 1012135
10:00+31вюв346489 0.1 1012954
13:00+33вюв545134 0.1 10091505
16:00+32св445715 0.2 10081219
19:00+27сз227953 1.1 101035
22:00+26юз2384100 1.1 101255
19 октября, вт
вт1901:00+26зюз228699 1.4 101145
04:00+25з228698 0.2 101053
07:00+26сз008396 0.3 101264
10:00+30в5665100 2.6 1013981
13:00+32в776085 3.4 10101097
16:00+31в565644 0.0 1009882
19:00+28в48715 0.0 1010181
22:00+27в58765 0.1 1012273
20 октября, ср
ср2001:00+26всв48795 0.1 1011244
04:00+26всв358350 0.0 101196
07:00+27св477762 0.1 1013663
10:00+30в886147 0.1 10131339
13:00+32в775219 0.1 10111251
16:00+31в66505 0.0 1009875
19:00+28вюв456781 0.0 1010100
22:00+27в34754 0.1 101286
21 октября, чт
чт2101:00+26всв368494 1.9 1011170
04:00+26в348522 0.6 101078
07:00+28всв577774 0.8 1012820
10:00+30в776647 0.3 10131196
13:00+32в7756100 0.3 10101330
16:00+31в7754100 0.0 1008998
19:00+28всв7117181 0.2 1010470
22:00+27всв610798 1.1 1012432